Volver al catálogo

OPS 4682 DEB

ActivoPO
NORAD 38413·DEBRIS·🇺🇸 United States

Lanzado Apr 3, 1965 desde Vandenberg Space Force Base

Loading…

Próximos Pases (próximas 24 horas)

TLE

ActualizadoSource: Space-Track

Época: Sep 14, 2026, 18:09 UTC

1 38413U 65027DS  26257.75653306  .00000396  00000-0  12872-2 0  9996
2 38413  90.2477  12.2616 0029578  56.3722 304.0216 13.00051862136916

Sigue OPS 4682 DEB en tiempo real con AllMySat

Download on the App Store